TimeCST,TemperatureF,Dew PointF,Humidity,Sea Level PressureIn,VisibilityMPH,Wind Direction,Wind SpeedMPH,Gust SpeedMPH,PrecipitationIn,Events,Conditions,WindDirDegrees,DateUTC
12:00 AM,68,65,89,29.97,5,NNE,8.1,,,,Haze,20,2012-11-12 06:00:00
12:00 AM,68.0,66.2,94,30.12,5.0,NNE,8.1,-,N/A,,Mostly Cloudy,20,2012-11-12 06:00:00
1:00 AM,68.0,66.2,94,30.12,5.0,NNE,8.1,-,N/A,,Mostly Cloudy,20,2012-11-12 07:00:00
2:00 AM,68.0,66.2,94,30.09,5.0,NNE,6.9,-,N/A,,Mostly Cloudy,20,2012-11-12 08:00:00
3:00 AM,66.2,64.4,94,30.09,5.0,Calm,Calm,-,N/A,,Mostly Cloudy,0,2012-11-12 09:00:00
4:00 AM,66.2,64.4,94,30.09,5.0,Calm,Calm,-,N/A,,Mostly Cloudy,0,2012-11-12 10:00:00
5:00 AM,64.4,64.4,100,30.06,5.0,Calm,Calm,-,N/A,,Scattered Clouds,0,2012-11-12 11:00:00
6:00 AM,65,65,98,29.96,2,North,4.6,,,,Mist,10,2012-11-12 12:00:00
6:00 AM,64.4,64.4,100,30.09,4.3,North,4.6,-,N/A,,Mostly Cloudy,10,2012-11-12 12:00:00
7:00 AM,66.2,66.2,100,30.09,4.3,Calm,Calm,-,N/A,,Mostly Cloudy,0,2012-11-12 13:00:00
8:00 AM,68.0,66.2,94,30.12,5.0,NNE,6.9,-,N/A,,Overcast,20,2012-11-12 14:00:00
9:00 AM,71,66,80,29.96,6,North,8.1,,,,Mostly Cloudy,0,2012-11-12 15:00:00
9:00 AM,71.6,66.2,83,30.12,5.6,North,8.1,-,N/A,,Mostly Cloudy,360,2012-11-12 15:00:00
11:00 AM,71.6,68.0,88,30.12,2.5,North,9.2,-,N/A,,Drizzle,360,2012-11-12 17:00:00
12:00 PM,73,67,76,29.92,3,North,6.9,,,Rain,Light Drizzle,0,2012-11-12 18:00:00
12:00 PM,73.4,68.0,83,30.09,1.9,North,6.9,-,N/A,,Light Drizzle,360,2012-11-12 18:00:00
1:00 PM,77.0,68.0,74,30.06,6.2,North,6.9,-,N/A,,Scattered Clouds,360,2012-11-12 19:00:00
2:00 PM,73.4,68.0,83,30.04,6.2,Variable,4.6,-,N/A,,Scattered Clouds,0,2012-11-12 20:00:00
3:00 PM,75,68,73,29.84,5,NE,5.8,,,,Mostly Cloudy,50,2012-11-12 21:00:00
3:00 PM,75.2,68.0,78,30.04,5.0,NE,5.8,-,N/A,,Scattered Clouds,50,2012-11-12 21:00:00
4:00 PM,75.2,68.0,78,30.04,5.0,North,5.8,-,N/A,,Mostly Cloudy,10,2012-11-12 22:00:00
5:00 PM,71.6,68.0,88,30.04,6.2,Calm,Calm,-,N/A,,Scattered Clouds,0,2012-11-12 23:00:00
6:00 PM,69.8,66.2,88,30.06,6.2,NNE,6.9,-,N/A,,Scattered Clouds,20,2012-11-13 00:00:00
7:00 PM,68.0,66.2,94,30.06,6.2,North,5.8,-,N/A,,Scattered Clouds,10,2012-11-13 01:00:00
8:00 PM,68.0,66.2,94,30.09,5.0,North,6.9,-,N/A,,Scattered Clouds,10,2012-11-13 02:00:00
9:00 PM,68,67,95,29.97,5,North,11.5,,,,Haze,350,2012-11-13 03:00:00
9:00 PM,68.0,66.2,94,30.12,5.0,North,11.5,-,N/A,,Mostly Cloudy,350,2012-11-13 03:00:00
10:00 PM,68.0,66.2,94,30.12,5.0,North,11.5,-,N/A,,Mostly Cloudy,360,2012-11-13 04:00:00
11:00 PM,66.2,66.2,100,30.12,5.0,NE,5.8,-,N/A,,Mostly Cloudy,40,2012-11-13 05:00:00